WO0TEN Weather Reports


Display with metric or nautical units.
time (UTC)temp
F
wind
direction
speed
MPH
gust
MPH
rain 1hr
in
rain 24hr
in
rain mn
in
humidity
%
barometer
mb
20260508213108 78 225 0.0 0.0 0.00 0.00 0.29 7
20260508212107 79 293 0.0 0.0 0.00 0.00 0.29 7
20260508211106 79 203 1.0 0.0 0.00 0.00 0.29 7
20260508210108 79 203 3.0 0.0 0.00 0.00 0.29 7
20260508205108 80 225 0.0 0.0 0.00 0.00 0.29 7
20260508204107 77 248 1.0 0.0 0.00 0.00 0.29 7
20260508203107 77 180 3.0 0.0 0.00 0.00 0.29 7
20260508202108 77 203 3.0 0.0 0.00 0.00 0.29 7
20260508201108 78 180 2.0 0.0 0.00 0.00 0.29 7
20260508200107 77 225 3.0 0.0 0.00 0.00 0.29 7
20260508195108 77 180 2.0 0.0 0.00 0.00 0.29 7
20260508194106 75 180 1.0 0.0 0.00 0.00 0.29 8
20260508193107 76 180 1.0 0.0 0.00 0.00 0.29 7
20260508192107 75 180 0.0 0.0 0.00 0.00 0.29 8
20260508191107 75 248 2.0 0.0 0.00 0.00 0.29 7
20260508190107 74 203 1.0 0.0 0.00 0.00 0.29 8
20260508185106 73 225 0.0 0.0 0.00 0.00 0.29 8
20260508184107 73 248 0.0 0.0 0.00 0.00 0.29 8
20260508183107 73 180 1.0 0.0 0.00 0.00 0.29 8
20260508182108 72 225 0.0 0.0 0.00 0.00 0.29 8
20260508181107 72 203 0.0 0.0 0.00 0.00 0.29 8
20260508180107 72 270 1.0 0.0 0.00 0.00 0.29 8
20260508175108 72 203 0.0 0.0 0.00 0.00 0.29 8
20260508174108 72 203 0.0 0.0 0.00 0.00 0.29 8
20260508173107 71 203 0.0 0.0 0.00 0.00 0.29 8
20260508172108 71 203 2.0 0.0 0.00 0.00 0.29 8
20260508171107 70 225 0.0 0.0 0.00 0.00 0.29 8
20260508170106 70 225 0.0 0.0 0.00 0.00 0.29 8
20260508165107 69 68 0.0 0.0 0.00 0.00 0.30 8
20260508164107 68 270 1.0 0.0 0.00 0.00 0.30 8
20260508163108 68 248 0.0 0.0 0.00 0.00 0.30 8
20260508162107 68 248 0.0 0.0 0.00 0.00 0.30 8
20260508161107 68 270 0.0 0.0 0.00 0.00 0.30 8
20260508160107 68 203 0.0 0.0 0.00 0.00 0.30 8
20260508155107 67 225 0.0 0.0 0.00 0.00 0.30 8
20260508154107 67 180 0.0 0.0 0.00 0.00 0.30 8
20260508153107 67 203 0.0 0.0 0.00 0.00 0.30 8
20260508152107 67 270 0.0 0.0 0.00 0.00 0.30 8
20260508151107 67 293 0.0 0.0 0.00 0.00 0.30 8
20260508150106 66 270 1.0 0.0 0.00 0.00 0.30 8
20260508145107 66 225 0.0 0.0 0.00 0.00 0.30 8
20260508144106 65 270 0.0 0.0 0.00 0.00 0.30 8
20260508143107 64 203 0.0 0.0 0.00 0.00 0.30 8
20260508142106 64 248 1.0 0.0 0.00 0.00 0.30 8
20260508141107 64 203 0.0 0.0 0.00 0.00 0.30 8
20260508140107 64 225 1.0 0.0 0.00 0.00 0.30 8
20260508135107 63 225 0.0 0.0 0.00 0.00 0.30 8
20260508134107 62 248 0.0 0.0 0.00 0.00 0.30 9
20260508133107 62 248 0.0 0.0 0.00 0.00 0.30 9
20260508132108 61 203 0.0 0.0 0.00 0.00 0.30 9
20260508131107 61 225 0.0 0.0 0.00 0.00 0.30 9
20260508130107 60 203 0.0 0.0 0.00 0.00 0.30 9
20260508125106 60 270 0.0 0.0 0.00 0.00 0.30 9
20260508124106 60 248 0.0 0.0 0.00 0.00 0.30 9
20260508123108 60 225 0.0 0.0 0.00 0.00 0.30 9
20260508122108 60 225 0.0 0.0 0.00 0.00 0.30 9
20260508121108 59 225 0.0 0.0 0.00 0.00 0.30 9
20260508120107 59 248 0.0 0.0 0.00 0.00 0.30 9
20260508115107 59 225 0.0 0.0 0.00 0.00 0.30 9
20260508114107 59 248 0.0 0.0 0.00 0.00 0.30 9
20260508113107 59 248 0.0 0.0 0.00 0.00 0.30 9
20260508112106 59 158 0.0 0.0 0.00 0.00 0.30 9
20260508111107 59 180 0.0 0.0 0.00 0.00 0.30 9
20260508110106 59 158 0.0 0.0 0.00 0.00 0.30 9
20260508105106 59 180 0.0 0.0 0.00 0.00 0.30 9
20260508104107 59 180 0.0 0.0 0.00 0.00 0.30 9
20260508103106 60 180 0.0 0.0 0.00 0.00 0.30 9
20260508102106 60 158 0.0 0.0 0.00 0.00 0.30 9
20260508101107 60 203 0.0 0.0 0.00 0.00 0.30 9
20260508100106 60 180 0.0 0.0 0.00 0.00 0.30 9
20260508095108 59 158 0.0 0.0 0.00 0.00 0.30 9
20260508094106 59 203 0.0 0.0 0.00 0.00 0.30 9
20260508093106 59 180 0.0 0.0 0.00 0.00 0.30 9
20260508092107 59 158 0.0 0.0 0.00 0.00 0.30 9
20260508091107 59 180 0.0 0.0 0.00 0.00 0.30 9
20260508090107 59 203 0.0 0.0 0.00 0.00 0.30 9
20260508085106 59 203 0.0 0.0 0.00 0.00 0.30 9
20260508084107 59 203 0.0 0.0 0.00 0.00 0.30 9
20260508083108 59 203 0.0 0.0 0.00 0.00 0.30 9
20260508082107 59 158 0.0 0.0 0.00 0.00 0.30 9
20260508081107 58 158 0.0 0.0 0.00 0.00 0.30 9
20260508080107 58 248 0.0 0.0 0.00 0.00 0.30 9
20260508075107 58 180 0.0 0.0 0.00 0.00 0.30 9
20260508074106 58 180 0.0 0.0 0.00 0.00 0.30 9
20260508073106 58 203 0.0 0.0 0.00 0.00 0.30 9
20260508072107 58 225 0.0 0.0 0.00 0.00 0.30 9
20260508071107 57 203 0.0 0.0 0.00 0.00 0.30 9
20260508070106 57 203 0.0 0.0 0.00 0.00 0.30 9
20260508065107 57 203 0.0 0.0 0.00 0.00 0.30 9
20260508064106 57 203 0.0 0.0 0.00 0.00 0.30 9
20260508063107 57 248 0.0 0.0 0.00 0.00 0.30 9
20260508062107 57 203 0.0 0.0 0.00 0.00 0.30 9
20260508061108 57 248 0.0 0.0 0.00 0.00 0.30 9
20260508060107 58 203 0.0 0.0 0.00 0.00 0.30 9
20260508055107 58 180 0.0 0.0 0.00 0.00 0.30 9
20260508054106 58 225 0.0 0.0 0.00 0.00 0.30 9
20260508053106 58 225 0.0 0.0 0.00 0.00 0.30 9
20260508052107 58 180 0.0 0.0 0.00 0.00 0.30 9
20260508051108 58 180 0.0 0.0 0.00 0.00 0.30 9
20260508050107 58 203 0.0 0.0 0.00 0.00 0.30 9
20260508045107 58 180 0.0 0.0 0.00 0.00 0.30 9
20260508044106 58 180 0.0 0.0 0.00 0.00 0.30 9
20260508043108 58 113 0.0 0.0 0.00 0.00 0.30 9
20260508042106 59 180 0.0 0.0 0.00 0.00 0.30 9
20260508041107 59 180 0.0 0.0 0.00 0.00 0.30 8
20260508040107 59 270 0.0 0.0 0.00 0.00 0.30 8
20260508035107 59 203 0.0 0.0 0.00 0.00 0.30 8
20260508034106 59 248 0.0 0.0 0.00 0.00 0.30 8
20260508033107 60 203 0.0 0.0 0.00 0.00 0.30 8
20260508032107 60 180 0.0 0.0 0.00 0.00 0.30 8
20260508031107 60 270 0.0 0.0 0.00 0.00 0.30 8
20260508030106 60 180 0.0 0.0 0.00 0.00 0.30 8
20260508025108 60 180 0.0 0.0 0.00 0.00 0.30 8
20260508024106 61 248 0.0 0.0 0.00 0.00 0.30 8
20260508023107 61 203 0.0 0.0 0.00 0.00 0.30 8
20260508022107 61 203 0.0 0.0 0.00 0.00 0.30 8
20260508021106 61 180 0.0 0.0 0.00 0.00 0.30 8
20260508020106 61 203 0.0 0.0 0.00 0.00 0.30 8
20260508015106 62 158 0.0 0.0 0.00 0.00 0.30 8
20260508014107 62 203 0.0 0.0 0.00 0.00 0.30 8
20260508013107 62 203 0.0 0.0 0.00 0.00 0.30 8
20260508012107 62 203 0.0 0.0 0.00 0.00 0.30 8
20260508011107 63 203 0.0 0.0 0.00 0.00 0.30 8
20260508010106 63 225 0.0 0.0 0.00 0.00 0.30 7
20260508005106 64 203 0.0 0.0 0.00 0.00 0.30 7
20260508004106 64 203 0.0 0.0 0.00 0.00 0.30 7
20260508003107 65 203 0.0 0.0 0.00 0.00 0.30 7
20260508002107 65 203 0.0 0.0 0.00 0.00 0.30 7
20260508001107 65 248 0.0 0.0 0.00 0.00 0.30 7
20260508000108 66 203 0.0 0.0 0.00 0.00 0.30 7
20260507235106 66 203 0.0 0.0 0.00 0.00 0.30 7
20260507234107 66 203 0.0 0.0 0.00 0.00 0.30 7
20260507233106 66 180 0.0 0.0 0.00 0.00 0.30 7
20260507232107 66 203 0.0 0.0 0.00 0.00 0.30 7
20260507231107 66 225 0.0 0.0 0.00 0.00 0.30 7
20260507230107 66 90 0.0 0.0 0.00 0.00 0.30 7
20260507225106 66 203 0.0 0.0 0.00 0.00 0.30 7
20260507224106 66 203 0.0 0.0 0.00 0.00 0.30 7
20260507223107 66 203 0.0 0.0 0.00 0.00 0.30 7
20260507222106 66 180 0.0 0.0 0.00 0.00 0.30 7
20260507221108 66 203 0.0 0.0 0.00 0.00 0.30 7
20260507220108 66 203 0.0 0.0 0.00 0.00 0.30 7
20260507215107 66 225 0.0 0.0 0.00 0.00 0.30 6
20260507214106 66 180 0.0 0.0 0.00 0.00 0.30 7